Flag for Ukraine Weather past 2 weeks in Odesa, Ukraine

Now
41 °F

Overcast.


Feels Like: 34 °F
Forecast: 41 / 47 °F
Wind: 13 mph from South

Location: Odesa Airport

Current Time: Jan 30, 2015 at 4:47:11 AM

Latest Report: Jan 30, 2015 at 4:00 AM


Visibility: N/A

Pressure: 29.62 "Hg

Humidity: 93%

Dew point: 39 °F

Location of OdesaLocation

Historic Weather in Odesa — Graph

°F

Odesa temperature yesterday

Maximum temperature yesterday: 39 °F (at 11:00 PM)
Minimum temperature yesterday: 32 °F (at 3:00 AM)
Average temperature yesterday: 34 °F

Past Weeks' High & Low Weather Summary

 TemperatureHumidityPressure
High41 °F (Jan 18, 10:30 AM)100% (Jan 15, 4:00 AM)30.33 "Hg (Jan 15, 4:00 AM)
Low28 °F (Jan 19, 2:30 AM)75% (Jan 15, 1:30 PM)29.62 "Hg (Jan 30, 3:30 AM)
Average35 °F95%30.07 "Hg
* Reported Jan 15 4:00 AM — Jan 30 4:00 AM, Odesa, Weather by CustomWeather, © 2014

Note: Actual official high and low records may vary slightly from our data, if they occured in-between our weather recording intervals... More about our weather records

Advertising

Odesa weather history for previous 24 hours

 ConditionsComfort  
Time TempWeatherWind HumidityBarometerVisibility
4:00 AM
Jan 30
41 °FOvercast.13 mph93%29.62 "HgN/A
3:30 AM41 °FOvercast.10 mph87%29.62 "HgN/A
3:00 AM41 °FOvercast.10 mph87%29.65 "HgN/A
2:30 AM41 °FOvercast.10 mph87%29.65 "HgN/A
2:00 AM39 °FOvercast.10 mph93%29.68 "HgN/A
1:30 AM39 °FOvercast.8 mph93%29.68 "HgN/A
1:00 AM39 °FOvercast.8 mph93%29.68 "HgN/A
12:30 AM39 °FOvercast.6 mph93%29.68 "HgN/A
12:00 AM39 °FOvercast.8 mph87%29.71 "HgN/A
11:30 PM
Jan 29
39 °FOvercast.10 mph87%29.71 "HgN/A
11:00 PM39 °FOvercast.10 mph87%29.71 "HgN/A
10:30 PM37 °FOvercast.8 mph93%29.71 "HgN/A
10:00 PM37 °FOvercast.8 mph93%29.74 "HgN/A
9:30 PM37 °FOvercast.8 mph93%29.74 "HgN/A
9:00 PM37 °FOvercast.6 mph93%29.74 "HgN/A
8:30 PM37 °FOvercast.6 mph93%29.74 "HgN/A
8:00 PM36 °FFog.6 mph100%29.74 "Hg3 mi
7:30 PM34 °FFog.3 mph100%29.74 "Hg2 mi
7:00 PM34 °FFog.6 mph93%29.74 "Hg2 mi
6:30 PM34 °FFog.6 mph93%29.77 "Hg3 mi
6:00 PM36 °FPassing clouds.6 mph93%29.77 "HgN/A
5:30 PM36 °FPartly cloudy.6 mph93%29.77 "HgN/A
5:00 PM36 °FFog.8 mph93%29.77 "HgN/A
4:30 PM34 °FFog.8 mph100%29.77 "Hg3 mi
4:00 PM36 °FFog.10 mph93%29.77 "Hg3 mi
3:30 PM36 °FScattered clouds.8 mph93%29.77 "HgN/A
3:00 PM37 °FScattered clouds.8 mph87%29.77 "HgN/A
2:30 PM37 °FScattered clouds.6 mph87%29.77 "HgN/A
2:00 PM37 °FScattered clouds.3 mph87%29.77 "HgN/A
1:30 PM36 °FFog.3 mph93%29.80 "Hg3 mi
1:00 PM34 °FFog.6 mph93%29.80 "Hg3 mi
12:30 PM34 °FFog.3 mph93%29.83 "Hg3 mi
12:04 PM34 °FFog.6 mph93%29.83 "Hg2 mi
12:00 PM34 °FFog.6 mph93%29.83 "Hg2 mi
11:30 AM34 °FFog.3 mph93%29.83 "Hg2 mi
11:00 AM34 °FFog.1 mph93%29.83 "Hg2 mi
10:30 AM34 °FFog.No wind93%29.83 "Hg2 mi
10:00 AM34 °FFog.No wind93%29.83 "Hg2 mi
9:30 AM32 °FIce fog.No wind100%29.83 "Hg2 mi
9:02 AM32 °FIce fog.3 mph93%29.83 "Hg2 mi
8:30 AM32 °FIce fog.3 mph93%29.83 "Hg2 mi
8:00 AM32 °FPartly sunny.No wind93%29.83 "HgN/A
7:30 AM32 °FLow clouds.1 mph93%29.83 "HgN/A
7:00 AM32 °FPartly cloudy.1 mph93%29.83 "HgN/A
6:30 AM32 °FMostly cloudy.No wind93%29.86 "HgN/A
6:00 AM32 °FMostly cloudy.1 mph93%29.86 "HgN/A
5:30 AM32 °FLow clouds.6 mph93%29.86 "HgN/A
5:00 AM32 °FMostly cloudy.6 mph93%29.83 "HgN/A
4:30 AM32 °FMostly cloudy.6 mph93%29.83 "HgN/A
4:00 AM32 °FMostly cloudy.3 mph93%29.86 "HgN/A
Weather by CustomWeather, © 2014

See weather overviewHow to use our weather pages